User: anonymous   Login
Location: Carrer del Canonge
(41.4901°N, 2.2931°E)
Time: 10:46:34
(UTC+00:00)
Language:

CZ-2D R/B - Orbit

View from above orbital plane
View from above orbital plane
View from above satellite
View from above satellite

Ground track
Ground track

The orbit data is extracted from the following two-line orbital elements,

1 28738U 05024B   20329.79026819 +.00000799 +00000-0 +49881-4 0  9996
2 28738 097.3732 346.9741 0011715 357.9096 002.2083 15.12165258845636
Epoch (UTC): 24 November 2020 18:57:59
Eccentricity: 0.0011715
inclination: 97.3732°
perigee height: 521 km
apogee height: 537 km
right ascension of ascending node: 346.9741°
argument of perigee: 357.9096°
revolutions per day: 15.12165258
mean anomaly at epoch: 2.2083°
orbit number at epoch: 84563

The dashed part of the orbit path shows where the satellite is in the earth's shadow,  

DLR